Andover, NJ

4:19 PM EST on December 14, 2019 (GMT -0500)
Andover

Weather History for K12N - September, 2019

Change the Weather History Date:

Tuesday, September 24, 2019

  Actual Average (KFWN) Record (KFWN)
Temperature  
Mean Temperature 63 °F -  
Max Temperature 75 °F 69 °F 92 °F (1970)
Min Temperature 51 °F 44 °F 27 °F (1963)
Degree Days  
Heating Degree Days 2    
Growing Degree Days 13 (Base 50)    
Moisture  
Dew Point 53 °F    
Average Humidity 73    
Maximum Humidity 97    
Minimum Humidity 42    
Precipitation  
Precipitation 0.00 in - - ()
Sea Level Pressure  
Sea Level Pressure 29.83 in    
Wind  
Wind Speed 2 mph (NW)    
Max Wind Speed 8 mph    
Max Gust Speed 18 mph    
Averages and records for this station are not official NWS values.
T = Trace of Precipitation, MM = Missing Value Source: NWS Daily Summary

Daily Weather History Graph

Daily Weather History Graph

Search for Another Location

Airport or City:

Astronomy

Sep. 24, 2019 Rise Set
Actual Time 6:48 AM EDT 6:53 PM EDT
Civil Twilight 6:20 AM EDT 7:20 PM EDT
Nautical Twilight 5:48 AM EDT 7:52 PM EDT
Astronomical Twilight 5:16 AM EDT 8:25 PM EDT
Moon 1:27 AM EDT (9/24) 4:39 PM EDT (9/24)
Length of Visible Light 12h 59m
Length of Day
12h 04m
Waning Crescent, 23% of the Moon is Illuminated
Sep 24
Waning Crescent
Sep 28
New
Oct 5
First Quarter
Oct 13
Full
Oct 21
Last Quarter

Hourly Weather History & Observations

Time (EDT) Temp. Dew Point Humidity Pressure Visibility Wind Dir Wind Speed Gust Speed Precip Events Conditions
12:54 AM 63.0 °F 57.0 °F 81% 29.77 in - South 3.5 mph - N/A   Unknown
1:54 AM 61.0 °F 57.9 °F 90% 29.77 in - Calm Calm - N/A   Unknown
2:54 AM 60.1 °F 57.0 °F 90% 29.77 in - Calm Calm - N/A   Unknown
3:54 AM 57.9 °F 57.0 °F 97% 29.77 in - Calm Calm - N/A   Unknown
4:54 AM 57.9 °F 55.9 °F 93% 29.78 in - Calm Calm - N/A   Unknown
5:54 AM 55.9 °F 55.0 °F 97% 29.79 in - Calm Calm - N/A   Unknown
6:54 AM 55.9 °F 55.0 °F 97% 29.81 in - Calm Calm - N/A   Unknown
7:54 AM 57.0 °F 55.9 °F 96% 29.81 in - Calm Calm - N/A   Unknown
8:54 AM 66.0 °F 55.9 °F 70% 29.82 in - Variable 4.6 mph - N/A   Unknown
9:54 AM 68.0 °F 55.0 °F 63% 29.83 in - NNW 5.8 mph - N/A   Unknown
10:54 AM 68.0 °F 52.0 °F 56% 29.83 in - Variable 3.5 mph - N/A   Unknown
11:54 AM 70.0 °F 53.1 °F 55% 29.83 in - Variable 6.9 mph - N/A   Unknown
12:54 PM 70.0 °F 52.0 °F 53% 29.83 in - NNW 5.8 mph - N/A   Unknown
1:54 PM 71.1 °F 51.1 °F 49% 29.81 in - Variable 4.6 mph 18.4 mph N/A   Unknown
2:54 PM 73.9 °F 52.0 °F 46% 29.80 in - Variable 5.8 mph - N/A   Unknown
3:54 PM 73.0 °F 52.0 °F 48% 29.81 in - NNW 8.1 mph - N/A   Unknown
4:54 PM 73.0 °F 48.9 °F 42% 29.81 in - Variable 5.8 mph - N/A   Unknown
5:54 PM 70.0 °F 48.0 °F 46% 29.83 in - Variable 3.5 mph - N/A   Unknown
6:54 PM 66.9 °F 48.0 °F 51% 29.85 in - NNW 3.5 mph - N/A   Unknown
7:54 PM 60.1 °F 51.1 °F 72% 29.88 in - Calm Calm - N/A   Unknown
8:54 PM 55.0 °F 52.0 °F 89% 29.89 in - Calm Calm - N/A   Unknown
9:54 PM 54.0 °F 51.1 °F 90% 29.90 in - Calm Calm - N/A   Unknown
10:54 PM 53.1 °F 51.1 °F 93% 29.91 in - Calm Calm - N/A   Unknown
11:54 PM 51.1 °F 50.0 °F 96% 29.90 in - Calm Calm - N/A   Unknown